[[{"header":{"parameterUnit":"m.s-1","parameterCategory":1,"la1":30.2991,"la2":30.254,"lo1":-89.0895,"lo2":-89.0444,"dy":0.0017,"dx":0.0017,"nx":28,"ny":28,"refTime":"2023-07-23T21:00:00:Z","depth":0,"parameterNumber":2,"parameterNumberName":"U-component_of_WINDS"},"data":[0,0,0,0,0,0,0,0,0,0,0,0,0,0,0,0,0,0,0,0,0,0,0,0,0,0,0,0,0,0,0,0,0,0,0,0,0,0,0,0,0,0,0,0,0,0,0,0,0,0,0,0,0,0,0,0,0,0,2.4361,2.4361,0,2.4362,2.4362,2.4362,2.4301,2.4299,2.4298,2.4296,2.4297,2.4299,2.43,0,0,0,0,0,0,0,0,0,0,0,0,0,2.4309,2.431,2.4361,2.4361,2.4361,2.4362,2.4362,2.4362,2.4301,2.4299,2.4297,2.4296,2.4297,2.4298,2.43,0,0,0,0,0,0,0,0,0,0,0,0,0,2.4323,2.431,2.4361,2.4331,2.4328,2.4362,2.4362,2.4362,2.4302,2.4299,2.4297,2.4295,2.4296,2.4298,2.43,2.4363,0,0,2.4307,2.4308,0,0,0,0,0,0,0,0,2.4322,2.4325,2.4336,2.4333,2.433,2.4329,2.4344,2.4362,2.4302,2.4312,2.4296,2.4294,2.431,2.4311,2.4316,2.4363,2.4363,2.4308,2.4309,2.431,2.4311,0,0,0,0,0,0,0,2.4321,2.4324,2.4361,2.4336,2.4333,2.4318,2.4317,2.4347,2.4324,2.4311,2.4306,2.4307,2.4308,2.4314,2.4316,2.4363,2.4307,2.4309,2.4311,2.4312,2.4463,2.4466,0,0,0,0,0,0,2.4324,2.4324,2.4361,2.4361,2.432,2.4321,2.432,2.4332,2.4324,2.432,2.4309,2.4305,2.4311,2.4313,2.4315,2.439,2.431,2.4312,2.4313,2.4461,2.4464,2.4467,0,0,0,0,0,0,2.4323,2.4328,2.4361,2.4341,2.4345,2.4324,2.4338,2.4333,2.4339,2.4323,2.4318,2.432,2.4309,2.4312,2.4352,2.4389,2.4313,2.4315,2.4457,2.4462,2.4465,2.4537,0,0,0,0,0,0,2.4322,2.4328,2.4351,2.4342,2.4346,2.4398,2.434,2.4335,2.4343,2.4337,2.4331,2.4328,2.4308,2.4349,2.4354,2.439,2.4317,2.4454,2.4459,2.4464,2.4532,2.4543,2.4553,0,0,0,0,0,2.432,2.4371,2.4352,2.4357,2.4374,2.44,2.4402,2.4377,2.4347,2.437,2.436,2.4328,2.4384,2.4353,2.4359,2.4396,2.4452,2.4458,2.4464,2.4527,2.4541,2.4553,0,0,0,0,0,0,2.4383,2.4369,2.4349,2.4398,2.4401,2.439,2.4418,2.4393,2.4404,2.4398,2.4367,2.4366,2.4412,2.4408,2.4374,2.4458,2.4412,2.442,2.4459,2.4472,2.4483,2.4483,2.4319,0,0,0,0,0,2.4403,2.4425,2.4411,2.4456,2.4458,2.4439,2.4449,2.443,2.4431,2.4432,2.4425,2.4428,2.4446,2.4458,2.4474,2.4531,2.453,2.4559,2.457,2.4579,2.4586,2.4618,2.4632,2.4486,2.4486,2.4486,0,0,2.4443,2.4438,2.4454,2.4468,2.4468,2.4493,2.444,2.4467,2.4485,2.4436,2.4474,2.4469,2.447,2.452,2.4541,2.4518,2.4626,2.4587,2.4594,2.4596,2.4626,2.464,2.4652,2.449,2.449,2.4489,0,0,2.453,2.4528,2.4566,2.4568,2.4569,2.4556,2.4565,2.4559,2.4554,2.4591,2.4556,2.4577,2.4608,2.4612,2.4617,2.4708,2.4681,2.4714,2.4771,2.4803,2.4814,2.4824,2.4859,2.4871,2.4721,2.4721,2.4721,0,2.4581,2.4615,2.4589,2.4619,2.4627,2.4586,2.4625,2.4628,2.4634,2.4641,2.4615,2.4655,2.4653,2.4704,2.4726,2.4732,2.4742,2.4715,2.4815,2.4825,2.4834,2.4866,2.4879,2.4726,2.4725,2.4725,2.4724,0,2.4678,2.4703,2.4734,2.4742,2.4754,2.4788,2.4768,2.4783,2.4764,2.4754,2.4794,2.479,2.4805,2.4815,2.4796,2.4864,2.485,2.482,2.4774,2.4852,2.4882,2.4894,2.4732,2.473,2.4729,2.4728,0,0,2.4803,2.4798,2.481,2.4815,2.4814,2.4833,2.4867,2.4882,2.4897,2.4903,2.4931,2.496,2.4933,2.494,2.4921,2.4948,2.5023,2.4915,2.4915,2.4937,2.51,2.5124,2.5139,2.5005,2.5007,2.5009,2.5101,0,2.4889,2.4946,2.4924,2.4983,2.5007,2.4969,2.4999,2.5002,2.4994,2.5013,2.5004,2.5026,2.4988,2.4992,2.5017,2.5009,2.5056,2.5002,2.5032,2.5034,2.5034,2.5154,2.5178,2.5265,2.5112,2.5114,2.5115,0,2.4995,2.5008,2.507,2.5068,2.5077,2.5104,2.5118,2.5136,2.514,2.5133,2.5142,2.5117,2.5151,2.5105,2.5152,2.5116,2.5127,2.5125,2.5128,2.5131,2.508,2.5161,2.5292,2.5306,2.5133,2.5132,2.513,0,2.5083,2.5115,2.5156,2.5161,2.5159,2.5179,2.518,2.5181,2.5193,2.5205,2.5213,2.5228,2.5237,2.5251,2.5232,2.52,2.5283,2.5234,2.5278,2.5279,2.5298,2.5297,2.5434,2.5303,2.5303,2.5303,2.5302,0,2.5181,2.5221,2.5196,2.5222,2.5266,2.5241,2.5286,2.5281,2.5284,2.5309,2.5276,2.5301,2.5274,2.5296,2.5281,2.5324,2.5328,2.5323,2.5319,2.5327,2.5328,2.5334,2.5329,2.5306,2.5305,2.5305,2.5304,0,2.5286,2.5271,2.5314,2.531,2.531,2.5343,2.5339,2.5363,2.5353,2.5386,2.5392,2.5377,2.5401,2.5384,2.5408,2.5399,2.5455,2.5442,2.5454,2.5451,2.5497,2.5493,2.5643,2.5662,2.5518,2.552,2.5521,0,2.535,2.538,2.538,2.5395,2.5397,2.5421,2.5433,2.5411,2.5425,2.5433,2.5457,2.5479,2.5496,2.5537,2.5528,2.5547,2.5535,2.5587,2.5538,2.5546,2.5538,2.5537,2.5541,2.5597,2.5598,2.56,2.5601,0,2.5466,2.5458,2.5477,2.5495,2.5511,2.5523,2.5533,2.5547,2.5525,2.5543,2.5568,2.5581,2.5607,2.563,2.5646,2.5646,2.5621,2.5616,2.5628,2.5637,2.5643,2.5642,2.5483,2.5613,2.5612,2.5611,2.561,2.561,2.5553,2.5579,2.5584,2.5607,2.5613,2.5624,2.5647,2.5641,2.5662,2.5682,2.5667,2.5698,2.5703,2.5722,2.5727,2.5751,2.573,2.5746,2.575,2.5755,2.5762,2.5639,2.5753,2.5753,2.5753,2.5752,2.5752,0,2.5669,2.5671,2.5693,2.5709,2.5728,2.5702,2.5713,2.573,2.5758,2.5765,2.5783,2.5813,2.5836,2.583,2.5851,2.5872,2.5861,2.5878,2.5877,2.5878,2.5779,2.5768,2.5887,2.5887,2.5887,2.5887,2.5887,2.5887,2.5732,2.5775,2.5768,2.5815,2.5816,2.5847,2.5855,2.5865,2.5871,2.5907,2.5926,2.5923,2.5925,2.5946,2.5967,2.5965,2.5974,2.5997,2.599,2.5898,2.5885,2.5872,2.5861,2.5999,2.5999,2.6088,2.6088,2.6089]},{"header":{"parameterUnit":"m.s-1","parameterCategory":1,"la1":30.2991,"la2":30.254,"lo1":-89.0895,"lo2":-89.0444,"dy":0.0017,"dx":0.0017,"nx":28,"ny":28,"refTime":"2023-07-23T21:00:00:Z","depth":0,"parameterNumber":3,"parameterNumberName":"V-component_of_WINDS"},"data":[0,0,0,0,0,0,0,0,0,0,0,0,0,0,0,0,0,0,0,0,0,0,0,0,0,0,0,0,0,0,0,0,0,0,0,0,0,0,0,0,0,0,0,0,0,0,0,0,0,0,0,0,0,0,0,0,0,0,-0.284,-0.2839,0,-0.2825,-0.2825,-0.2825,-0.2806,-0.2805,-0.2805,-0.2805,-0.2792,-0.2792,-0.2792,0,0,0,0,0,0,0,0,0,0,0,0,0,-0.2853,-0.2853,-0.284,-0.2839,-0.2839,-0.2825,-0.2825,-0.2825,-0.2806,-0.2805,-0.2805,-0.2805,-0.2792,-0.2792,-0.2792,0,0,0,0,0,0,0,0,0,0,0,0,0,-0.2844,-0.2853,-0.284,-0.2828,-0.2827,-0.2825,-0.2825,-0.2825,-0.2806,-0.2805,-0.2805,-0.2805,-0.2792,-0.2792,-0.2792,-0.28,0,0,-0.2791,-0.2791,0,0,0,0,0,0,0,0,-0.2844,-0.2843,-0.283,-0.2829,-0.2827,-0.2817,-0.2825,-0.2817,-0.2806,-0.2814,-0.2805,-0.2804,-0.28,-0.28,-0.2798,-0.28,-0.2799,-0.2791,-0.2791,-0.2791,-0.2791,0,0,0,0,0,0,0,-0.2845,-0.2844,-0.2834,-0.283,-0.2828,-0.2824,-0.2822,-0.2823,-0.281,-0.2813,-0.2812,-0.281,-0.28,-0.2798,-0.2798,-0.2799,-0.2791,-0.2791,-0.2791,-0.2791,-0.2809,-0.2809,0,0,0,0,0,0,-0.2847,-0.2844,-0.2834,-0.2833,-0.2835,-0.2824,-0.2822,-0.2821,-0.281,-0.2808,-0.2811,-0.2809,-0.2799,-0.2798,-0.2797,-0.2808,-0.2791,-0.2791,-0.2791,-0.2808,-0.2809,-0.281,0,0,0,0,0,0,-0.2847,-0.2846,-0.2835,-0.2838,-0.2837,-0.2825,-0.2823,-0.2821,-0.2819,-0.2808,-0.2806,-0.2811,-0.2798,-0.2797,-0.28,-0.2807,-0.2791,-0.2791,-0.2808,-0.2809,-0.2809,-0.2829,0,0,0,0,0,0,-0.2848,-0.2846,-0.2849,-0.2839,-0.2837,-0.2838,-0.2823,-0.2821,-0.2819,-0.2817,-0.2808,-0.2806,-0.2798,-0.28,-0.28,-0.2807,-0.2791,-0.2807,-0.2808,-0.2809,-0.2828,-0.283,-0.2833,0,0,0,0,0,-0.2848,-0.2855,-0.2849,-0.2848,-0.284,-0.2838,-0.2837,-0.2826,-0.2819,-0.2823,-0.2816,-0.2806,-0.2806,-0.2801,-0.28,-0.2807,-0.2807,-0.2808,-0.2809,-0.2827,-0.283,-0.2833,0,0,0,0,0,0,-0.2868,-0.2854,-0.2847,-0.2851,-0.2846,-0.2835,-0.2838,-0.283,-0.2827,-0.2826,-0.2813,-0.2812,-0.2816,-0.2812,-0.2806,-0.2816,-0.2805,-0.2806,-0.2819,-0.2822,-0.2824,-0.2826,-0.2791,0,0,0,0,0,-0.2872,-0.2871,-0.2859,-0.2864,-0.2862,-0.2851,-0.2849,-0.2842,-0.2836,-0.2834,-0.2827,-0.2823,-0.2822,-0.2821,-0.2819,-0.2827,-0.2825,-0.2831,-0.2834,-0.2836,-0.2837,-0.2842,-0.2845,-0.2813,-0.2813,-0.2813,0,0,-0.2882,-0.2874,-0.2875,-0.2868,-0.2863,-0.2863,-0.2849,-0.2849,-0.285,-0.2834,-0.2837,-0.2832,-0.2826,-0.2831,-0.2833,-0.2827,-0.2846,-0.2837,-0.2839,-0.284,-0.2844,-0.2847,-0.285,-0.2814,-0.2814,-0.2814,0,0,-0.29,-0.2893,-0.2897,-0.2893,-0.2885,-0.2878,-0.2879,-0.2869,-0.2865,-0.2867,-0.2856,-0.2856,-0.2854,-0.2851,-0.2849,-0.2866,-0.2859,-0.2866,-0.288,-0.2885,-0.2887,-0.289,-0.2897,-0.29,-0.2867,-0.2868,-0.2868,0,-0.2913,-0.2913,-0.29,-0.2902,-0.29,-0.2885,-0.289,-0.2886,-0.2878,-0.2878,-0.2871,-0.2869,-0.2864,-0.2869,-0.2874,-0.2872,-0.2874,-0.2868,-0.2888,-0.289,-0.2892,-0.2899,-0.2902,-0.2869,-0.2869,-0.2868,-0.2868,0,-0.293,-0.293,-0.2934,-0.2927,-0.2925,-0.2928,-0.2917,-0.2917,-0.2909,-0.2903,-0.2906,-0.2899,-0.2897,-0.2897,-0.289,-0.2901,-0.2898,-0.289,-0.2879,-0.2896,-0.2903,-0.2905,-0.287,-0.287,-0.2869,-0.2869,0,0,-0.296,-0.2947,-0.2949,-0.2946,-0.2937,-0.2937,-0.2939,-0.2936,-0.2937,-0.2933,-0.2936,-0.2934,-0.2927,-0.2925,-0.2917,-0.2921,-0.2937,-0.2912,-0.2912,-0.2919,-0.2952,-0.2959,-0.2962,-0.2931,-0.2932,-0.2932,-0.2953,0,-0.2978,-0.2981,-0.2971,-0.2977,-0.2978,-0.2964,-0.2966,-0.2962,-0.2956,-0.2956,-0.2949,-0.2949,-0.2939,-0.2937,-0.2941,-0.2935,-0.2944,-0.2933,-0.2935,-0.2936,-0.2939,-0.2966,-0.2973,-0.2993,-0.2955,-0.2955,-0.2956,0,-0.2999,-0.2995,-0.3002,-0.2994,-0.2993,-0.2996,-0.2993,-0.2993,-0.2987,-0.2983,-0.2981,-0.2972,-0.2975,-0.2963,-0.2968,-0.2961,-0.2961,-0.2958,-0.2959,-0.296,-0.2948,-0.2969,-0.2999,-0.3003,-0.2959,-0.2959,-0.2959,0,-0.3022,-0.3019,-0.3023,-0.3021,-0.3011,-0.3013,-0.3009,-0.3003,-0.3003,-0.3,-0.3,-0.2997,-0.2997,-0.2996,-0.2987,-0.2979,-0.2993,-0.2981,-0.2991,-0.2991,-0.2996,-0.2996,-0.3028,-0.2993,-0.2993,-0.2993,-0.2993,0,-0.3044,-0.3049,-0.3034,-0.3036,-0.3042,-0.303,-0.3036,-0.303,-0.3026,-0.3028,-0.3015,-0.3018,-0.3005,-0.3006,-0.2999,-0.3005,-0.3004,-0.3002,-0.3,-0.3004,-0.3004,-0.3005,-0.3004,-0.2994,-0.2994,-0.2994,-0.2993,0,-0.3072,-0.3061,-0.3065,-0.3055,-0.3053,-0.3058,-0.305,-0.3052,-0.3045,-0.3048,-0.3048,-0.3038,-0.3039,-0.3029,-0.3028,-0.3024,-0.3034,-0.3029,-0.3035,-0.3035,-0.3046,-0.3046,-0.3081,-0.3085,-0.3046,-0.3047,-0.3047,0,-0.3087,-0.3091,-0.3081,-0.3081,-0.3078,-0.3078,-0.3078,-0.3066,-0.3066,-0.306,-0.3064,-0.3064,-0.3063,-0.3065,-0.3058,-0.3058,-0.3054,-0.3066,-0.3054,-0.3058,-0.3056,-0.3057,-0.3058,-0.3069,-0.307,-0.307,-0.3071,0,-0.3116,-0.3111,-0.311,-0.3107,-0.3107,-0.3104,-0.3101,-0.3102,-0.309,-0.309,-0.3091,-0.309,-0.309,-0.309,-0.3088,-0.3085,-0.3077,-0.3074,-0.3077,-0.3082,-0.3086,-0.3086,-0.3044,-0.3074,-0.3074,-0.3073,-0.3073,-0.3073,-0.3139,-0.3142,-0.3136,-0.3136,-0.3132,-0.313,-0.3132,-0.3125,-0.3126,-0.3124,-0.3117,-0.3119,-0.3115,-0.3111,-0.3109,-0.3111,-0.3106,-0.3109,-0.311,-0.3112,-0.3115,-0.3084,-0.3111,-0.3111,-0.311,-0.311,-0.311,0,-0.3168,-0.3164,-0.3164,-0.316,-0.316,-0.3151,-0.3147,-0.3148,-0.315,-0.3146,-0.3146,-0.3148,-0.3148,-0.3141,-0.3141,-0.3144,-0.3141,-0.3145,-0.3146,-0.3145,-0.3119,-0.3117,-0.3148,-0.3148,-0.3148,-0.3148,-0.3148,-0.3148,-0.3184,-0.3189,-0.3184,-0.3187,-0.3183,-0.3185,-0.3184,-0.3182,-0.3179,-0.3181,-0.3182,-0.3177,-0.3172,-0.3172,-0.3172,-0.317,-0.3172,-0.3178,-0.3175,-0.3151,-0.3147,-0.3143,-0.3142,-0.3178,-0.3178,-0.3201,-0.3202,-0.3202]}]]